Total_Precipitation_Accumulation
0.90 0.89 0.86 0.94 0.92 0.93 0.99 0.97 0.85 0.86 0.80 0.68 0.67 0.70 0.78 0.80 0.93 1.04 1.24 1.64 2.19 2.73 2.88 2.67 2.28 2.03 1.97 1.97 1.89 1.88 1.86 1.91 2.07 2.25 2.14 2.03 2.06 2.06 2.01 2.26 2.41 2.63 2.79
0.75 0.86 0.87 0.96 0.92 0.97 1.05 0.93 0.87 0.89 0.88 0.76 0.70 0.74 0.76 0.80 0.88 1.03 1.15 1.40 1.74 2.30 2.87 2.98 2.70 2.39 2.19 2.21 2.21 2.24 2.05 1.92 1.96 2.18 2.22 2.04 2.02 1.95 1.95 2.09 2.31 2.43 2.73
0.70 0.83 0.92 0.96 0.96 0.98 0.99 1.01 1.00 0.95 0.87 0.81 0.81 0.77 0.75 0.79 0.97 1.09 1.14 1.29 1.35 1.46 2.04 2.72 2.96 2.82 2.58 2.61 2.55 2.43 2.26 2.11 1.99 2.06 2.18 2.07 1.96 1.77 1.87 1.92 1.98 1.99 2.31
0.74 0.96 1.04 0.96 1.02 1.12 1.15 1.19 1.15 1.06 0.99 0.99 1.01 0.97 0.88 0.93 1.11 1.19 1.13 1.10 1.15 1.09 1.25 1.65 2.06 2.37 2.68 2.82 2.84 2.66 2.44 2.28 2.02 1.99 2.01 2.01 1.88 1.66 1.68 1.76 1.78 1.82 1.95
0.93 1.12 1.21 1.12 1.10 1.27 1.26 1.16 1.21 1.26 1.22 1.26 1.19 1.19 1.13 1.13 1.14 1.09 1.08 1.14 1.19 1.18 1.20 1.10 1.26 1.57 2.16 2.65 2.98 3.18 2.89 2.67 2.37 2.19 2.09 1.89 1.75 1.65 1.61 1.61 1.61 1.67 1.72
1.17 1.33 1.45 1.43 1.38 1.52 1.54 1.43 1.55 1.61 1.53 1.57 1.45 1.36 1.29 1.26 1.22 1.18 1.17 1.24 1.36 1.27 1.29 1.19 1.14 1.02 1.32 1.88 2.52 3.04 3.09 2.99 2.75 2.41 2.23 1.88 1.74 1.60 1.54 1.54 1.54 1.56 1.63
1.57 1.69 1.68 1.91 1.98 1.97 2.00 1.96 2.13 2.18 1.90 1.76 2.11 2.06 1.64 1.33 1.21 1.27 1.35 1.40 1.52 1.55 1.50 1.44 1.37 1.15 1.07 1.25 1.71 2.62 2.97 2.96 2.80 2.54 2.45 2.17 1.85 1.65 1.55 1.54 1.57 1.53 1.60
1.92 1.84 1.93 2.18 2.25 2.37 2.47 2.32 2.48 2.59 2.28 1.98 2.44 2.93 2.50 2.01 1.40 1.16 1.27 1.44 1.62 1.66 1.59 1.47 1.46 1.40 1.30 1.30 1.33 1.89 2.46 2.84 2.83 2.67 2.58 2.51 2.08 1.83 1.64 1.60 1.59 1.57 1.54
2.32 2.20 2.15 2.30 2.35 2.45 2.68 2.73 2.68 2.81 2.76 2.39 2.36 2.93 2.92 2.52 2.08 1.52 1.34 1.41 1.61 1.73 1.78 1.77 1.61 1.59 1.49 1.53 1.59 1.47 1.63 2.11 2.58 2.65 2.58 2.55 2.35 2.05 1.79 1.69 1.66 1.56 1.42
2.48 2.42 2.37 2.45 2.50 2.51 2.63 2.69 2.67 2.94 3.18 2.92 2.61 2.39 2.35 2.38 2.42 2.04 1.61 1.47 1.62 1.73 1.88 1.81 1.83 1.88 1.83 1.79 1.77 1.48 1.30 1.47 1.92 2.37 2.54 2.64 2.51 2.22 1.95 1.84 1.87 1.71 1.56
2.25 2.19 2.30 2.46 2.50 2.51 2.53 2.70 2.81 3.03 3.08 3.03 2.91 2.74 2.56 2.38 2.03 2.10 2.02 1.76 1.71 1.64 1.78 1.96 2.03 2.07 2.01 2.12 2.19 1.67 1.32 1.26 1.53 1.97 2.40 2.62 2.69 2.61 2.30 2.02 1.92 1.92 1.90
2.11 2.01 2.10 2.18 2.29 2.36 2.35 2.41 2.58 2.74 2.96 3.11 3.05 2.87 2.81 2.74 2.51 2.33 2.04 1.88 1.94 1.80 1.71 1.75 1.87 1.96 2.11 2.17 2.06 1.87 1.43 1.26 1.37 1.48 1.74 2.23 2.57 2.78 2.68 2.50 2.33 2.19 2.18
2.07 2.04 1.96 2.00 2.06 2.12 2.22 2.42 2.44 2.52 2.71 2.90 2.92 2.84 2.83 2.67 2.57 2.59 2.35 1.98 1.89 1.79 1.72 1.67 1.65 1.74 1.84 1.95 2.00 1.92 1.50 1.36 1.29 1.24 1.21 1.32 1.71 2.19 2.62 2.79 2.79 2.60 2.57
1.68 1.65 1.68 1.77 1.91 2.00 2.07 2.24 2.33 2.33 2.39 2.46 2.48 2.64 2.74 2.64 2.43 2.36 2.38 2.42 2.16 1.92 1.74 1.62 1.56 1.58 1.66 1.70 1.84 1.87 1.42 1.26 1.18 1.11 1.05 0.94 1.03 1.28 1.75 2.17 2.33 2.43 2.63
1.27 1.29 1.35 1.49 1.69 1.81 1.86 1.97 2.15 2.13 2.18 2.17 2.23 2.30 2.35 2.43 2.31 2.15 2.12 2.22 2.34 2.13 1.96 1.76 1.57 1.38 1.46 1.46 1.55 1.37 1.30 1.23 1.09 1.02 0.98 0.89 0.84 0.89 1.14 1.53 1.67 1.60 1.68
1.18 1.24 1.26 1.33 1.46 1.55 1.63 1.79 1.93 2.02 2.05 2.03 2.01 2.08 2.13 2.18 2.20 2.18 2.16 2.17 2.16 2.11 2.00 1.79 1.51 1.25 1.31 1.37 1.54 1.32 1.35 1.43 1.22 1.06 0.95 0.93 0.90 0.86 0.91 1.06 1.17 1.07 1.02
1.21 1.25 1.29 1.31 1.32 1.40 1.46 1.56 1.69 1.83 1.85 1.87 1.77 1.79 1.91 1.98 2.17 2.21 2.19 2.16 2.14 2.05 1.90 1.79 1.55 1.33 1.31 1.38 1.44 1.36 1.38 1.38 1.22 1.16 1.06 0.99 0.90 0.93 0.97 1.00 1.08 1.01 0.87
1.06 1.14 1.24 1.21 1.20 1.25 1.33 1.43 1.53 1.58 1.67 1.64 1.54 1.56 1.67 1.75 1.90 2.01 2.12 2.03 2.04 2.00 1.99 1.92 1.69 1.50 1.42 1.41 1.47 1.43 1.31 1.29 1.28 1.30 1.19 1.11 1.01 0.93 0.99 0.98 1.08 1.15 1.05
0.95 1.06 1.20 1.31 1.22 1.12 1.21 1.30 1.34 1.36 1.38 1.33 1.31 1.37 1.42 1.51 1.64 1.75 1.85 1.94 1.96 1.89 1.99 1.96 1.75 1.56 1.43 1.37 1.39 1.36 1.32 1.37 1.29 1.32 1.28 1.17 1.13 1.06 1.06 1.05 1.03 1.13 1.13
0.77 0.82 0.98 1.09 1.13 1.09 1.06 1.07 1.11 1.26 1.26 1.17 1.08 1.07 1.09 1.13 1.27 1.41 1.52 1.67 1.82 1.95 2.02 2.04 1.88 1.63 1.44 1.38 1.43 1.48 1.47 1.40 1.42 1.32 1.34 1.31 1.30 1.26 1.17 1.16 1.06 1.04 1.12
0.67 0.73 0.89 1.04 1.08 1.08 1.11 1.11 1.05 1.09 1.15 1.16 1.08 0.97 0.89 0.89 1.00 1.09 1.18 1.45 1.65 1.82 1.96 2.02 1.94 1.75 1.57 1.48 1.42 1.42 1.51 1.60 1.61 1.45 1.41 1.34 1.29 1.15 1.04 1.06 1.06 0.99 0.98
0.65 0.66 0.75 0.90 1.02 0.98 1.16 1.21 1.13 1.04 1.04 1.04 1.03 1.01 1.00 0.95 0.84 0.80 0.86 1.03 1.28 1.49 1.68 1.81 1.84 1.69 1.52 1.48 1.51 1.51 1.51 1.58 1.63 1.48 1.44 1.52 1.45 1.30 1.15 1.04 1.11 1.04 0.98
0.63 0.63 0.69 0.82 0.96 1.09 1.13 1.00 1.07 1.07 1.03 1.03 0.99 0.99 1.02 1.00 1.05 0.93 0.87 0.86 0.89 1.07 1.32 1.54 1.58 1.53 1.59 1.52 1.48 1.43 1.41 1.41 1.42 1.44 1.46 1.49 1.48 1.35 1.18 1.11 1.21 1.15 1.09
0.66 0.66 0.68 0.73 0.81 1.01 1.08 0.94 1.12 1.13 1.11 1.10 1.07 1.07 1.11 1.14 1.09 1.21 1.17 1.06 0.98 0.97 1.08 1.03 1.14 1.43 1.56 1.57 1.57 1.58 1.61 1.51 1.43 1.40 1.36 1.40 1.33 1.27 1.15 1.08 1.15 1.09 1.03
0.67 0.67 0.63 0.64 0.67 0.77 0.88 0.83 0.96 1.08 1.18 1.18 1.07 1.05 1.10 1.12 1.32 1.37 1.25 1.20 1.12 1.06 1.20 1.22 1.25 1.32 1.40 1.41 1.41 1.49 1.54 1.50 1.43 1.35 1.28 1.20 1.15 1.23 1.27 1.18 1.15 1.21 1.16
0.74 0.66 0.62 0.60 0.60 0.62 0.78 0.65 0.74 0.90 1.08 1.20 1.14 1.08 1.24 1.19 1.21 1.17 1.10 1.27 1.22 1.10 1.02 0.98 0.99 1.05 1.08 1.14 1.22 1.24 1.39 1.42 1.35 1.35 1.23 1.19 1.14 1.21 1.28 1.19 1.07 1.07 1.12